SL-16 DEB

基本信息
目录编号:
27760
目录名称:
SL-16 DEB
国际标识:
1994-077M
轨道中心:
EARTH
物体状态:
在轨
发射日期:
1994-11-24 UTC
轨道信息
数据来源: 国际轨道数据
星历时间: 2026-07-12T22:17:52+0800
半长轴: 7042.925km
偏心率: 0.0043934
轨道倾角: 70.993°
近地点辐角: 213.456°
升交点赤经: 17.808°
平近点角: 215.059°
近地点: 633.845km
远地点: 695.731km
周期: 98.037分钟
每日圈数: 14.688357
详细信息
发射场:
TTMTR
轨道高度:
LEO
数据来源:
AOE Integration Group
参考系:
TEME
时间系统:
UTC
历元类型:
SGP4
2D轨道图
3D轨道图
轨道高度分析图
轨道倾角分析图
轨道综合分析图
查看轨道综合分析图